Location: Cork
(51.8990°N, 8.4960°W)
Time: 19:16:32
(UTC+00:00)

Iridium 66 - Visible Passes

Search period start: 28 February 2015 00:00
Search period end: 10 March 2015 00:00
Orbit: 776 x 779 km, 86.4° (Epoch: 28 February)

Date Brightness Start Highest point End Pass type
(mag) Time Alt. Az. Time Alt. Az. Time Alt. Az.
28 Feb 7.0 03:58:41 39° ESE 03:59:36 43° E 04:04:33 10° NNE visible
28 Feb 6.7 05:39:11 28° WSW 05:40:31 32° WNW 05:45:10 10° NNW visible
01 Mar 7.8 03:25:33 25° E 03:26:16 26° E 03:30:37 10° NNE visible
01 Mar 6.1 05:06:02 48° WSW 05:06:45 52° W 05:11:53 10° N visible
02 Mar 8.5 02:52:23 16° E 02:53:03 16° ENE 02:56:19 10° NE visible
02 Mar 5.9 04:32:52 80° SSW 04:33:09 85° W 04:38:25 10° N visible
02 Mar 7.6 06:13:21 14° W 06:14:50 15° WNW 06:17:46 10° NNW visible
03 Mar 6.5 03:59:40 58° E 03:59:40 58° E 04:04:48 10° N visible
03 Mar 7.1 05:40:08 24° W 05:40:50 24° WNW 05:45:01 10° NNW visible
04 Mar 7.4 03:26:25 35° E 03:26:25 35° E 03:31:00 10° NNE visible
04 Mar 6.5 05:06:54 38° W 05:06:59 38° WNW 05:11:52 10° N visible
05 Mar 8.1 02:53:09 22° ENE 02:53:09 22° ENE 02:56:57 10° NNE visible
05 Mar 6.0 04:33:38 62° WNW 04:33:38 62° WNW 04:38:30 10° N visible
05 Mar 7.9 06:14:06 11° WNW 06:15:18 11° WNW 06:16:49 10° NW visible
06 Mar 8.7 02:19:51 13° ENE 02:19:51 13° ENE 02:22:21 10° NE visible
06 Mar 6.2 04:00:20 68° NNE 04:00:20 68° NNE 04:04:59 10° N visible
06 Mar 7.4 05:40:49 18° WNW 05:41:12 18° WNW 05:44:44 10° NNW visible
07 Mar 7.0 03:27:02 44° ENE 03:27:02 44° ENE 03:31:17 10° NNE visible
07 Mar 6.9 05:07:30 29° WNW 05:07:30 29° WNW 05:11:46 10° NNW visible
08 Mar 7.8 02:53:42 28° ENE 02:53:42 28° ENE 02:57:24 10° NNE visible
08 Mar 6.5 04:34:10 44° NW 04:34:10 44° NW 04:38:32 10° N visible
09 Mar 8.4 02:20:21 18° ENE 02:20:21 18° ENE 02:23:12 10° NNE visible
09 Mar 6.3 04:00:50 58° NNW 04:00:50 58° NNW 04:05:06 10° N visible
09 Mar 7.8 05:41:18 14° WNW 05:41:38 14° WNW 05:44:11 10° NNW visible
